Total_Precipitation_Accumulation
0.48 0.45 0.48 0.54 0.56 0.58 0.60 0.59 0.58 0.66 0.70 0.74 0.87 1.09 1.38 1.48 1.57 1.49 1.29 1.23 1.34 1.60 1.86 1.84 1.93 1.99 1.91 1.87 1.87 2.10 2.03 1.75 1.58 1.68 1.54 1.38 1.26 1.42 1.47 1.42 1.52 1.60 1.71
0.38 0.34 0.36 0.40 0.42 0.46 0.52 0.54 0.53 0.61 0.66 0.71 0.86 1.02 1.19 1.20 1.36 1.48 1.45 1.37 1.36 1.51 1.66 1.95 2.09 2.07 2.18 2.29 2.27 2.65 2.77 2.28 1.86 1.95 2.21 1.97 1.76 1.58 1.45 1.48 1.54 1.67 1.88
0.37 0.33 0.32 0.33 0.35 0.37 0.37 0.39 0.43 0.51 0.62 0.77 0.96 1.17 1.37 1.45 1.52 1.44 1.52 1.53 1.45 1.49 1.60 1.76 1.91 1.95 2.09 2.26 2.37 2.71 3.25 3.00 2.36 2.18 2.59 2.36 2.14 2.03 1.72 1.54 1.53 1.58 1.85
0.35 0.39 0.36 0.38 0.36 0.33 0.31 0.34 0.43 0.56 0.75 0.95 1.17 1.40 1.60 1.65 1.54 1.56 1.59 1.48 1.41 1.37 1.47 1.60 1.73 1.85 1.90 2.07 2.17 2.31 2.87 3.28 2.96 2.67 2.37 2.04 1.99 2.18 2.16 1.81 1.61 1.60 1.73
0.35 0.36 0.35 0.38 0.39 0.37 0.38 0.45 0.64 0.86 1.10 1.30 1.55 1.82 1.80 1.69 1.59 1.57 1.56 1.51 1.51 1.47 1.46 1.60 1.68 1.70 1.78 1.91 2.24 2.51 2.81 3.05 3.06 3.05 2.84 2.54 2.26 1.93 2.19 2.24 1.90 1.77 1.72
0.37 0.45 0.50 0.59 0.64 0.66 0.80 0.98 1.24 1.41 1.50 1.61 1.76 1.88 1.82 1.83 1.77 1.57 1.50 1.51 1.56 1.61 1.62 1.66 1.68 1.66 1.71 1.84 2.07 2.37 2.61 2.93 3.16 3.11 2.92 2.78 2.65 2.41 2.33 2.20 2.04 2.04 1.88
0.44 0.59 0.75 0.88 1.00 1.14 1.29 1.43 1.58 1.71 1.65 1.63 1.69 1.74 1.72 1.69 1.66 1.59 1.52 1.47 1.49 1.53 1.56 1.62 1.74 1.82 1.86 1.99 2.17 2.34 2.27 2.47 2.89 2.92 2.78 2.69 2.51 2.45 2.52 2.46 2.15 2.01 1.73
0.61 0.74 0.82 0.94 1.11 1.27 1.35 1.35 1.44 1.54 1.50 1.48 1.48 1.46 1.51 1.52 1.46 1.36 1.34 1.39 1.48 1.47 1.41 1.44 1.54 1.66 1.85 1.92 1.98 2.03 1.99 2.09 2.35 2.47 2.65 2.74 2.51 2.41 2.33 2.31 2.35 2.12 1.82
0.89 1.04 1.15 1.26 1.30 1.35 1.43 1.35 1.34 1.39 1.40 1.35 1.29 1.30 1.32 1.37 1.37 1.29 1.28 1.27 1.27 1.20 1.12 1.12 1.19 1.27 1.35 1.45 1.61 1.71 1.82 1.86 1.99 2.15 2.28 2.44 2.56 2.49 2.32 2.28 2.27 2.23 2.03
1.12 1.42 1.69 1.84 1.66 1.40 1.32 1.31 1.24 1.24 1.34 1.34 1.28 1.24 1.29 1.30 1.28 1.28 1.23 1.22 1.21 1.13 1.05 1.00 0.98 0.98 0.94 0.98 1.17 1.38 1.51 1.60 1.75 1.94 2.08 2.13 2.19 2.38 2.36 2.21 2.20 2.12 2.01
1.26 1.43 1.65 1.81 1.71 1.40 1.18 1.22 1.27 1.26 1.26 1.26 1.27 1.25 1.21 1.12 1.11 1.14 1.12 1.09 1.09 1.13 1.10 1.00 0.95 1.05 1.04 0.99 1.05 1.12 1.19 1.27 1.41 1.55 1.67 1.82 2.07 2.38 2.42 2.37 2.25 2.16 2.04
1.17 1.17 1.24 1.30 1.32 1.18 0.99 0.97 1.13 1.22 1.19 1.17 1.20 1.18 1.07 1.01 0.99 0.97 0.91 0.80 0.77 0.78 0.87 0.96 0.90 0.89 0.93 0.95 1.01 1.03 1.07 1.12 1.23 1.34 1.46 1.62 1.91 2.25 2.46 2.56 2.45 2.29 2.16
1.16 1.14 1.06 0.99 1.01 0.97 0.89 0.86 1.00 1.16 1.21 1.20 1.09 1.00 0.94 0.90 0.90 0.82 0.77 0.73 0.64 0.62 0.65 0.74 0.74 0.83 0.91 0.95 0.99 0.99 1.03 1.06 1.15 1.30 1.36 1.41 1.59 1.79 1.99 2.18 2.33 2.30 2.27
0.86 0.82 0.77 0.71 0.70 0.72 0.76 0.81 0.93 1.01 1.14 1.27 1.18 1.06 0.97 0.92 0.87 0.80 0.77 0.71 0.67 0.68 0.73 0.83 0.86 0.81 0.80 0.84 0.95 1.00 0.98 0.97 0.99 1.07 1.17 1.25 1.30 1.46 1.60 1.71 1.93 2.15 2.38
0.46 0.47 0.48 0.46 0.45 0.44 0.44 0.53 0.68 0.83 1.02 1.25 1.25 1.12 1.07 1.01 0.87 0.79 0.79 0.76 0.78 0.75 0.76 0.85 0.94 0.99 0.95 0.91 0.98 0.96 0.96 0.97 0.94 0.98 0.98 1.05 1.07 1.14 1.32 1.36 1.59 1.93 2.20
0.32 0.32 0.32 0.31 0.27 0.25 0.26 0.28 0.39 0.58 0.73 0.91 1.00 0.99 0.90 0.80 0.77 0.76 0.72 0.69 0.68 0.64 0.61 0.64 0.70 0.78 0.85 1.09 1.04 0.86 0.80 0.86 0.91 0.95 0.95 0.97 0.92 0.89 0.96 1.08 1.21 1.52 1.73
0.27 0.27 0.26 0.27 0.27 0.25 0.24 0.26 0.33 0.41 0.50 0.65 0.75 0.76 0.70 0.64 0.62 0.65 0.62 0.58 0.51 0.52 0.50 0.49 0.49 0.54 0.72 0.83 0.66 0.64 0.66 0.79 0.90 0.97 1.01 0.98 0.91 0.94 0.95 0.97 0.97 1.04 1.22
0.26 0.26 0.25 0.23 0.22 0.22 0.22 0.25 0.28 0.30 0.33 0.40 0.48 0.49 0.49 0.50 0.51 0.51 0.50 0.50 0.46 0.45 0.44 0.50 0.57 0.58 0.61 0.70 0.57 0.53 0.61 0.81 0.93 0.93 0.89 0.97 0.99 1.01 1.06 1.00 1.05 0.99 0.97
0.18 0.17 0.16 0.14 0.13 0.13 0.14 0.16 0.20 0.21 0.21 0.23 0.27 0.29 0.31 0.37 0.43 0.44 0.47 0.56 0.56 0.53 0.52 0.62 0.69 0.64 0.59 0.64 0.62 0.63 0.75 0.88 0.96 0.92 0.93 1.02 1.06 1.19 1.23 1.13 1.17 1.13 1.09
0.10 0.11 0.09 0.09 0.09 0.09 0.10 0.11 0.13 0.15 0.16 0.17 0.18 0.22 0.25 0.29 0.37 0.43 0.44 0.44 0.44 0.48 0.54 0.57 0.53 0.53 0.62 0.71 0.67 0.74 0.88 1.01 1.11 1.07 1.07 1.27 1.23 1.22 1.16 1.11 1.25 1.21 1.07
0.07 0.08 0.08 0.08 0.10 0.10 0.11 0.10 0.10 0.12 0.15 0.18 0.21 0.24 0.27 0.30 0.33 0.32 0.28 0.31 0.35 0.35 0.34 0.36 0.40 0.46 0.62 0.68 0.72 0.90 0.95 1.02 1.17 1.18 1.15 1.10 1.23 1.17 1.09 1.07 1.11 1.25 1.13
0.06 0.06 0.08 0.10 0.09 0.10 0.11 0.12 0.12 0.14 0.17 0.18 0.19 0.21 0.22 0.23 0.25 0.25 0.24 0.24 0.28 0.30 0.32 0.33 0.38 0.43 0.49 0.55 0.62 0.77 0.88 0.95 1.10 1.19 1.09 0.99 1.21 1.15 1.05 0.96 0.98 1.13 1.21
0.08 0.08 0.10 0.15 0.17 0.13 0.13 0.14 0.16 0.18 0.18 0.18 0.18 0.20 0.20 0.22 0.20 0.20 0.23 0.27 0.27 0.29 0.29 0.32 0.39 0.48 0.50 0.50 0.59 0.65 0.73 0.84 1.00 1.06 1.07 1.07 1.10 1.00 0.95 1.03 1.07 1.09 1.12
0.08 0.11 0.16 0.19 0.23 0.20 0.18 0.15 0.15 0.17 0.17 0.16 0.18 0.20 0.20 0.21 0.19 0.19 0.21 0.23 0.24 0.26 0.30 0.35 0.40 0.44 0.49 0.51 0.62 0.73 0.75 0.84 0.90 0.87 0.90 0.94 0.89 0.87 0.90 0.96 1.05 1.10 1.16
0.07 0.10 0.17 0.19 0.20 0.21 0.22 0.20 0.17 0.15 0.15 0.15 0.17 0.17 0.20 0.22 0.19 0.16 0.17 0.20 0.22 0.28 0.35 0.38 0.40 0.40 0.40 0.48 0.61 0.76 0.85 0.98 1.09 1.07 0.92 0.90 0.88 0.85 0.84 0.88 0.93 0.99 1.00
0.08 0.10 0.13 0.16 0.17 0.19 0.21 0.19 0.17 0.15 0.15 0.16 0.17 0.17 0.16 0.16 0.18 0.19 0.17 0.18 0.20 0.26 0.31 0.34 0.36 0.38 0.42 0.42 0.44 0.55 0.72 0.92 1.19 1.42 1.35 1.29 1.18 1.07 0.96 0.90 0.86 0.84 0.85